Location: *
(46.1333°S, 161.2167°W)
Time: 03:52:06
(UTC+00:00)

Cosmos 2322 Rocket - Pass Details

Date: 15 July 2020
Orbit: 832 x 851 km, 71.0° (Epoch: 10 August)

Event Time Altitude Azimuth Distance (km) Brightness Sun altitude
Rises 16:31:36 0° 351° (N) 3,413 5.4 -18.5°
Reaches altitude 10° 16:34:05 10° 355° (N) 2,484 4.7 -18.1°
Maximum altitude 16:39:37 53° 70° (ENE) 1,045 3.1 -17.1°
Drops below altitude 10° 16:45:13 10° 145° (SE) 2,507 4.9 -16.2°
Sets 16:47:43 0° 150° (SSE) 3,447 5.6 -15.8°
